Miscellaneous Local Product
Issued by NWS North Platte, NE

Home | Current Version | Previous Version | Text Only | Print | Product List | Glossary On
Versions: 1 2 3 4 5 6 7 8 9 10 11 12 13 14 15 16 17 18 19 20 21 22 23 24 25 26 27 28 29 30 31 32 33 34 35 36 37 38 39 40 41 42 43 44 45 46 47 48 49 50
762
AXUS43 KLBF 100810
MISLBF


WESTERN AND NORTH CENTRAL NEBRASKA HOURLY WEATHER ROUNDUP
NATIONAL WEATHER SERVICE NORTH PLATTE NE
200 AM CST WED FEB 10 2016

NOTE: "FAIR" INDICATES FEW OR NO CLOUDS BELOW 12,000 FEET WITH NO
SIGNIFICANT WEATHER AND/OR OBSTRUCTIONS TO VISIBILITY.

NOTE: STATIONS NOT REPORTING VARIABLES SUCH AS SKY/WEATHER OR
PRESSURE ARE PROVIDED BY THE NEBRASKA DEPARTMENT OF
ROADS...RAWS...AND APRS NETWORKS...AND ARE NOT UNDER
NATIONAL WEATHER SERVICE QUALITY CONTROL.

...OBSERVATIONS IN AND NEAR THE EASTERN PANHANDLE OF NEBRASKA...

CITY           SKY/WX    TMP DP  RH WIND       PRES   REMARKS
PINE RIDGE     CLEAR     36  26  67 W12       30.03F WCI  28
CHADRON        CLEAR     33  26  75 SW7       30.04F WCI  27
ALLIANCE       CLEAR     30  24  78 W13       30.06F WCI  20
SIDNEY         CLEAR     35  24  64 W15       30.13F WCI  25
CRESCENT LAKE    N/A     37  28  69 W9          N/A  WCI  30
BIG SPRINGS      N/A     34  28  77 W5          N/A  WCI  30
$$

...OBSERVATIONS IN NORTH CENTRAL NEBRASKA...

CITY           SKY/WX    TMP DP  RH WIND       PRES   REMARKS
VALENTINE      CLEAR     30  27  88 W7        29.97F WCI  23
THEDFORD       CLEAR     32  31  94 SW7       30.02F WCI  26
AINSWORTH      CLEAR     32  27  84 SW3       29.98F
O`NEILL        CLOUDY    30  25  83 CALM      30.00F
ORD            CLOUDY    32  26  78 SW10      30.01F WCI  24
BROKEN BOW     CLOUDY    33  28  81 W3        30.03F
VALENTINE NWR    N/A     31  29  90 SW7         N/A  WCI  24
BUTTE            N/A     29  23  77 S3          N/A
HALSEY           N/A     33  29  86 SW5         N/A  WCI  28
CHAMBERS         N/A     32  25  74 CALM        N/A
EWING            N/A     27  22  81 CALM        N/A
$$

...OBSERVATIONS IN SOUTHWEST NEBRASKA AND FAR NORTHEAST COLORADO...

CITY           SKY/WX    TMP DP  RH WIND       PRES   REMARKS
WRAY           FAIR      33  27  76 SW8       30.14F WCI  26
HOLYOKE        FAIR      36  28  75 W12       30.13F WCI  27
IMPERIAL       CLEAR     38  26  62 W15       30.10F WCI  29
OGALLALA       CLEAR     32  25  75 W10       30.09F WCI  24
NORTH PLATTE   CLEAR     22  21  96 NW6       30.06F WCI  14
MCCOOK         CLEAR     30  26  85 W9        30.09F WCI  22
LEXINGTON      CLEAR     28  23  82 SW3       30.07F
PAXTON           N/A     31  28  89 W6          N/A  WCI  25
STAPLETON        N/A     28  26  94 CALM        N/A
GOTHENBURG       N/A     28  23  81 CALM        N/A
CALLAWAY         N/A     25  23  90 SW6         N/A  WCI  18
$$

...OBSERVATIONS IN CENTRAL LINCOLN COUNTY AREA...

CITY           SKY/WX    TMP DP  RH WIND       PRES   REMARKS
N.P. AIRPORT   CLEAR     22  21  96 NW6       30.06F WCI  14
N.P. DOWNTOWN    N/A     30  28  92 CALM        N/A
N.P. SOUTHEAST   N/A     32  28  85 CALM        N/A
N.P. HILLCREST   N/A     30  29  94 W3          N/A
$$

...SOME OBSERVATIONS FROM AROUND THE REGION...

CITY           SKY/WX    TMP DP  RH WIND       PRES   REMARKS
DENVER         CLOUDY    38  17  42 SW17      30.20F WCI  28
LARAMIE        CLOUDY    29  12  49 W5        30.27F WCI  24
CHEYENNE       CLOUDY    40  16  37 W18       30.17F WCI  31
SCOTTSBLUFF    CLEAR     32  24  72 N3        30.11F
RAPID CITY     CLOUDY    27  23  85 CALM      29.95F
BISMARCK       CLOUDY    28  21  75 E9        29.96F WCI  19
PIERRE         CLEAR     26  22  84 E6        29.94F WCI  19
WINNER         FAIR      34  25  69 S7        29.97F WCI  28
SIOUX FALLS    CLOUDY    21  12  68 SE7       30.08F WCI  12
OMAHA          CLOUDY    20  15  81 S7        30.16F WCI  11
GRAND ISLAND   CLOUDY    27  22  81 S7        30.08F WCI  19
KANSAS CITY    CLOUDY    19  12  74 SW5       30.21F WCI  12
WICHITA        CLOUDY    28  15  58 S9        30.24S WCI  19
OKLAHOMA CITY  CLEAR     28  20  71 SW3       30.29S
LIBERAL        CLEAR     34  25  69 W10       30.21F WCI  26
HAYS           CLEAR     28  16  59 S7        30.14F WCI  21
GOODLAND       CLEAR     37  25  61 W15       30.15F WCI  28
$$




USA.gov is the U.S. government's official web portal to all federal, state and local government web resources and services.